Total_Precipitation_Accumulation
0.21 0.21 0.23 0.21 0.21 0.22 0.27 0.38 0.51 0.37 0.13 0.11 0.18 0.20 0.20 0.23 0.28 0.31 0.29 0.31 0.36 0.38 0.39 0.45 0.52 0.58 0.67 0.90 1.37 2.01 2.50 2.81 2.69 2.28 1.86 1.65 1.77 1.98
0.29 0.29 0.29 0.28 0.28 0.27 0.27 0.29 0.39 0.50 0.33 0.11 0.16 0.22 0.26 0.26 0.30 0.31 0.30 0.33 0.34 0.37 0.39 0.40 0.45 0.50 0.58 0.70 0.86 1.27 1.85 2.30 2.61 2.68 2.47 2.18 2.02 2.10
0.34 0.36 0.37 0.37 0.37 0.35 0.34 0.34 0.35 0.46 0.45 0.15 0.09 0.16 0.27 0.32 0.32 0.29 0.28 0.27 0.25 0.31 0.38 0.40 0.43 0.45 0.49 0.58 0.69 0.88 1.29 1.75 2.13 2.53 2.75 2.63 2.38 2.19
0.39 0.42 0.43 0.43 0.45 0.44 0.44 0.42 0.39 0.41 0.47 0.30 0.13 0.14 0.23 0.30 0.35 0.34 0.28 0.25 0.24 0.26 0.34 0.41 0.44 0.45 0.46 0.49 0.55 0.68 0.93 1.37 1.71 1.97 2.33 2.50 2.41 2.38
0.36 0.41 0.46 0.51 0.54 0.52 0.52 0.49 0.44 0.38 0.37 0.34 0.20 0.16 0.20 0.27 0.32 0.35 0.34 0.31 0.27 0.27 0.30 0.38 0.46 0.47 0.47 0.47 0.49 0.53 0.61 0.83 1.22 1.66 2.05 2.37 2.37 2.28
0.36 0.39 0.45 0.52 0.59 0.64 0.67 0.58 0.50 0.46 0.40 0.34 0.25 0.21 0.21 0.25 0.34 0.38 0.39 0.39 0.38 0.34 0.31 0.33 0.40 0.45 0.44 0.41 0.40 0.44 0.51 0.70 0.99 1.38 1.69 2.06 2.26 2.20
0.39 0.40 0.43 0.54 0.68 0.81 0.87 0.78 0.67 0.57 0.46 0.40 0.33 0.26 0.25 0.30 0.38 0.41 0.43 0.42 0.44 0.46 0.40 0.33 0.32 0.33 0.37 0.41 0.42 0.42 0.49 0.57 0.70 0.95 1.31 1.61 1.94 2.16
0.43 0.39 0.37 0.41 0.47 0.56 0.68 0.68 0.67 0.63 0.58 0.51 0.48 0.43 0.37 0.37 0.41 0.50 0.56 0.53 0.49 0.45 0.40 0.37 0.38 0.40 0.36 0.37 0.44 0.45 0.43 0.46 0.55 0.70 0.91 1.17 1.44 1.80
0.34 0.29 0.27 0.28 0.28 0.27 0.32 0.31 0.34 0.44 0.56 0.61 0.64 0.61 0.54 0.48 0.51 0.57 0.64 0.64 0.56 0.53 0.48 0.51 0.48 0.45 0.43 0.47 0.54 0.48 0.46 0.47 0.47 0.52 0.66 0.87 1.07 1.34
0.26 0.28 0.27 0.26 0.24 0.25 0.28 0.27 0.25 0.29 0.42 0.53 0.64 0.67 0.66 0.63 0.63 0.70 0.78 0.80 0.71 0.67 0.64 0.68 0.66 0.56 0.51 0.50 0.57 0.53 0.46 0.44 0.45 0.48 0.53 0.63 0.81 1.04
0.24 0.33 0.34 0.30 0.27 0.26 0.29 0.29 0.24 0.24 0.29 0.41 0.52 0.54 0.56 0.65 0.72 0.74 0.78 0.87 0.97 0.97 0.89 0.88 0.86 0.72 0.64 0.59 0.60 0.62 0.58 0.50 0.47 0.48 0.51 0.55 0.64 0.81
0.20 0.30 0.47 0.41 0.32 0.24 0.23 0.21 0.19 0.21 0.20 0.19 0.23 0.27 0.31 0.38 0.54 0.74 0.86 0.88 1.00 1.12 1.08 1.01 1.01 0.89 0.83 0.74 0.61 0.54 0.56 0.62 0.60 0.57 0.59 0.61 0.65 0.67
0.20 0.30 0.46 0.39 0.28 0.20 0.15 0.14 0.19 0.19 0.15 0.13 0.14 0.17 0.22 0.30 0.43 0.60 0.78 0.88 0.93 1.02 1.03 1.04 1.07 0.97 0.84 0.79 0.68 0.60 0.51 0.49 0.51 0.59 0.67 0.73 0.76 0.73
0.21 0.24 0.32 0.29 0.21 0.14 0.09 0.09 0.10 0.07 0.06 0.07 0.08 0.10 0.15 0.24 0.37 0.50 0.64 0.75 0.86 0.94 0.92 0.92 0.98 0.94 0.80 0.66 0.64 0.69 0.63 0.56 0.49 0.49 0.56 0.79 0.90 0.89
0.25 0.38 0.28 0.17 0.10 0.06 0.03 0.03 0.03 0.02 0.03 0.04 0.06 0.07 0.11 0.17 0.24 0.34 0.45 0.57 0.66 0.74 0.80 0.80 0.84 0.89 0.85 0.71 0.57 0.60 0.70 0.73 0.63 0.55 0.55 0.61 0.73 0.81
0.13 0.21 0.17 0.07 0.02 0.01 0.01 0.01 0.01 0.02 0.04 0.05 0.05 0.05 0.06 0.09 0.14 0.24 0.35 0.46 0.56 0.67 0.75 0.82 0.87 0.95 0.96 0.84 0.67 0.60 0.63 0.75 0.78 0.66 0.58 0.58 0.64 0.66
0.16 0.10 0.06 0.03 0.02 0.01 0.01 0.01 0.01 0.01 0.02 0.03 0.04 0.05 0.06 0.08 0.12 0.19 0.31 0.41 0.53 0.66 0.76 0.88 0.99 1.06 1.13 1.10 0.97 0.81 0.71 0.71 0.78 0.76 0.65 0.65 0.72 0.71
0.11 0.07 0.05 0.04 0.03 0.03 0.02 0.01 0.01 0.02 0.03 0.04 0.05 0.06 0.08 0.10 0.12 0.16 0.25 0.36 0.47 0.57 0.67 0.82 0.99 1.13 1.31 1.42 1.30 1.05 0.85 0.80 0.88 0.92 0.78 0.68 0.75 0.74
0.05 0.04 0.04 0.03 0.03 0.03 0.03 0.02 0.02 0.02 0.03 0.05 0.06 0.07 0.09 0.11 0.13 0.16 0.22 0.32 0.43 0.52 0.61 0.71 0.88 1.10 1.25 1.40 1.51 1.28 0.98 0.84 0.91 1.07 1.01 0.77 0.68 0.66
0.04 0.04 0.04 0.03 0.04 0.04 0.03 0.03 0.03 0.02 0.03 0.04 0.05 0.06 0.08 0.13 0.15 0.17 0.23 0.34 0.43 0.51 0.60 0.70 0.87 1.03 1.12 1.06 1.12 1.31 1.22 0.97 0.91 1.07 1.12 0.92 0.82 0.88
0.04 0.04 0.04 0.04 0.05 0.04 0.04 0.03 0.03 0.03 0.03 0.04 0.05 0.05 0.07 0.12 0.15 0.17 0.21 0.31 0.43 0.52 0.60 0.70 0.88 1.02 1.09 1.03 1.08 1.29 1.37 1.31 1.10 1.02 0.97 0.87 0.86 0.91
0.05 0.06 0.05 0.05 0.06 0.05 0.05 0.04 0.04 0.03 0.03 0.04 0.05 0.05 0.07 0.11 0.14 0.17 0.22 0.29 0.39 0.49 0.58 0.68 0.80 0.99 1.18 1.23 1.27 1.31 1.36 1.42 1.47 1.38 1.16 0.85 0.68 0.68
0.09 0.08 0.07 0.06 0.07 0.06 0.06 0.05 0.04 0.04 0.03 0.04 0.05 0.05 0.07 0.10 0.13 0.17 0.21 0.27 0.35 0.42 0.50 0.62 0.79 0.98 1.19 1.25 1.26 1.27 1.21 1.19 1.26 1.35 1.52 1.32 0.91 0.63